,,Stat6,,Stat2,,Stat8,,Stat9,,Stat10,,Wind1,,Wind1,
time,status,PA1M_AVG,status,PR1M_SUM,status,RH1M_AVG,status,SR1M_AVG,status,TA1M_AVG,status,W1dAve1m,status,W1sAve1m,
2008-07-14, 00:00:00,VALID,918.002,VALID,0,VALID,100,VALID,-0.135847,VALID,19.7874,VALID,8,VALID,0,
2008-07-14, 00:01:00,VALID,918,VALID,0,VALID,100,VALID,-0.152827,VALID,19.7802,VALID,8,VALID,0,
2008-07-14, 00:02:00,VALID,918.017,VALID,0,VALID,100,VALID,-0.169808,VALID,19.7944,VALID,8,VALID,0,
2008-07-14, 00:03:00,VALID,918.014,VALID,0,VALID,100,VALID,-0.152827,VALID,19.7772,VALID,8,VALID,0,
2008-07-14, 00:04:00,VALID,918.001,VALID,0,VALID,100,VALID,-0.186789,VALID,19.7812,VALID,8,VALID,0,
2008-07-14, 00:05:00,VALID,917.992,VALID,0,VALID,100,VALID,-0.186789,VALID,19.7872,VALID,8,VALID,0,
2008-07-14, 00:06:00,VALID,917.989,VALID,0,VALID,100,VALID,-0.169808,VALID,19.7807,VALID,8,VALID,0,
2008-07-14, 00:07:00,VALID,917.973,VALID,0,VALID,100,VALID,-0.101885,VALID,19.751,VALID,8,VALID,0,
2008-07-14, 00:08:00,VALID,917.975,VALID,0,VALID,100,VALID,-0.152827,VALID,19.735,VALID,8,VALID,0,
2008-07-14, 00:09:00,VALID,917.984,VALID,0,VALID,100,VALID,-0.152827,VALID,19.7317,VALID,8,VALID,0,
2008-07-14, 00:10:00,VALID,917.989,VALID,0,VALID,100,VALID,-0.186789,VALID,19.7253,VALID,8,VALID,0,
2008-07-14, 00:11:00,VALID,917.998,VALID,0,VALID,100,VALID,-0.101885,VALID,19.7205,VALID,8,VALID,0,
2008-07-14, 00:12:00,VALID,918.017,VALID,0,VALID,100,VALID,-0.101885,VALID,19.7397,VALID,8,VALID,0,
2008-07-14, 00:13:00,VALID,918.013,VALID,0,VALID,100,VALID,-0.101885,VALID,19.7562,VALID,8,VALID,0,
2008-07-14, 00:14:00,VALID,918.003,VALID,0,VALID,100,VALID,-0.0509425,VALID,19.7592,VALID,8,VALID,0,
2008-07-14, 00:15:00,VALID,917.994,VALID,0,VALID,100,VALID,-0.0679233,VALID,19.7627,VALID,8,VALID,0,
2008-07-14, 00:16:00,VALID,917.99,VALID,0,VALID,100,VALID,-0.0679233,VALID,19.7522,VALID,8,VALID,0,
2008-07-14, 00:17:00,VALID,917.995,VALID,0,VALID,100,VALID,-0.0509425,VALID,19.759,VALID,7,VALID,0,
2008-07-14, 00:18:00,VALID,917.993,VALID,0,VALID,100,VALID,-0.0509425,VALID,19.7527,VALID,4,VALID,0,
2008-07-14, 00:19:00,VALID,917.972,VALID,0,VALID,100,VALID,-0.0339617,VALID,19.749,VALID,304,VALID,0,
2008-07-14, 00:20:00,VALID,917.967,VALID,0,VALID,100,VALID,-0.0679233,VALID,19.7495,VALID,191,VALID,0,
2008-07-14, 00:21:00,VALID,917.959,VALID,0,VALID,100,VALID,-0.0679233,VALID,19.7397,VALID,190,VALID,0.0472301,
2008-07-14, 00:22:00,VALID,917.955,VALID,0,VALID,100,VALID,-0.0679233,VALID,19.7427,VALID,190,VALID,0,
2008-07-14, 00:23:00,VALID,917.946,VALID,0,VALID,100,VALID,-0.0679233,VALID,19.7527,VALID,190,VALID,0,
2008-07-14, 00:24:00,VALID,917.958,VALID,0,VALID,100,VALID,-0.0849042,VALID,19.7592,VALID,190,VALID,0,
2008-07-14, 00:25:00,VALID,917.966,VALID,0,VALID,100,VALID,-0.0849042,VALID,19.756,VALID,190,VALID,0,
2008-07-14, 00:26:00,VALID,917.977,VALID,0,VALID,100,VALID,-0.0339617,VALID,19.7689,VALID,190,VALID,0,
2008-07-14, 00:27:00,VALID,917.989,VALID,0,VALID,100,VALID,-0.0849042,VALID,19.7657,VALID,190,VALID,0,
2008-07-14, 00:28:00,VALID,917.999,VALID,0,VALID,100,VALID,-0.0679233,VALID,19.7819,VALID,190,VALID,0,
2008-07-14, 00:29:00,VALID,918.001,VALID,0,VALID,100,VALID,-0.0679233,VALID,19.7949,VALID,190,VALID,0,
2008-07-14, 00:30:00,VALID,917.983,VALID,0,VALID,100,VALID,-0.101885,VALID,19.8081,VALID,190,VALID,0,
2008-07-14, 00:31:00,VALID,917.959,VALID,0,VALID,100,VALID,-0.0849042,VALID,19.8111,VALID,190,VALID,0,
2008-07-14, 00:32:00,VALID,917.953,VALID,0,VALID,100,VALID,-0.0679233,VALID,19.8338,VALID,190,VALID,0,
2008-07-14, 00:33:00,VALID,917.925,VALID,0,VALID,100,VALID,-0.101885,VALID,19.8668,VALID,190,VALID,0,
2008-07-14, 00:34:00,VALID,917.92,VALID,0,VALID,100,VALID,-0.101885,VALID,19.909,VALID,190,VALID,0,
2008-07-14, 00:35:00,VALID,917.9,VALID,0,VALID,100,VALID,-0.0509425,VALID,19.9282,VALID,65,VALID,0,
2008-07-14, 00:36:00,VALID,917.882,VALID,0,VALID,100,VALID,-0.0849042,VALID,19.8922,VALID,55,VALID,0,
2008-07-14, 00:37:00,VALID,917.855,VALID,0,VALID,100,VALID,-0.0849042,VALID,19.8728,VALID,55,VALID,0,
2008-07-14, 00:38:00,VALID,917.844,VALID,0,VALID,100,VALID,-0.0849042,VALID,19.8468,VALID,54,VALID,0,
2008-07-14, 00:39:00,VALID,917.827,VALID,0,VALID,100,VALID,-0.0679233,VALID,19.8273,VALID,52,VALID,0,
2008-07-14, 00:40:00,VALID,917.833,VALID,0,VALID,100,VALID,-0.0679233,VALID,19.8311,VALID,45,VALID,0,
2008-07-14, 00:41:00,VALID,917.828,VALID,0,VALID,100,VALID,-0.0509425,VALID,19.8568,VALID,33,VALID,0,
2008-07-14, 00:42:00,VALID,917.827,VALID,0,VALID,100,VALID,-0.0849042,VALID,19.8531,VALID,32,VALID,0,
2008-07-14, 00:43:00,VALID,917.817,VALID,0,VALID,100,VALID,-0.0679233,VALID,19.8241,VALID,24,VALID,0.142401,
2008-07-14, 00:44:00,VALID,917.809,VALID,0,VALID,100,VALID,-0.0679233,VALID,19.7979,VALID,24,VALID,0,
2008-07-14, 00:45:00,VALID,917.795,VALID,0,VALID,100,VALID,-0.101885,VALID,19.7949,VALID,24,VALID,0,
2008-07-14, 00:46:00,VALID,917.779,VALID,0,VALID,100,VALID,-0.0849042,VALID,19.7952,VALID,24,VALID,0,
2008-07-14, 00:47:00,VALID,917.759,VALID,0,VALID,100,VALID,-0.101885,VALID,19.8079,VALID,24,VALID,0,
2008-07-14, 00:48:00,VALID,917.748,VALID,0,VALID,100,VALID,-0.0679233,VALID,19.8144,VALID,24,VALID,0,
2008-07-14, 00:49:00,VALID,917.75,VALID,0,VALID,100,VALID,-0.0509425,VALID,19.8146,VALID,24,VALID,0,
2008-07-14, 00:50:00,VALID,917.749,VALID,0,VALID,100,VALID,-0.0849042,VALID,19.8341,VALID,24,VALID,0,
2008-07-14, 00:51:00,VALID,917.751,VALID,0,VALID,100,VALID,-0.0849042,VALID,19.8566,VALID,24,VALID,0,
2008-07-14, 00:52:00,VALID,917.747,VALID,0,VALID,100,VALID,-0.0849042,VALID,19.8536,VALID,24,VALID,0,
2008-07-14, 00:53:00,VALID,917.744,VALID,0,VALID,100,VALID,-0.0679233,VALID,19.8341,VALID,24,VALID,0,
2008-07-14, 00:54:00,VALID,917.733,VALID,0,VALID,100,VALID,-0.101885,VALID,19.8111,VALID,24,VALID,0,
2008-07-14, 00:55:00,VALID,917.711,VALID,0,VALID,100,VALID,-0.0849042,VALID,19.8081,VALID,24,VALID,0,
2008-07-14, 00:56:00,VALID,917.708,VALID,0,VALID,100,VALID,-0.0849042,VALID,19.8081,VALID,24,VALID,0,
2008-07-14, 00:57:00,VALID,917.696,VALID,0,VALID,100,VALID,-0.0849042,VALID,19.8016,VALID,24,VALID,0,
2008-07-14, 00:58:00,VALID,917.683,VALID,0,VALID,100,VALID,-0.0509425,VALID,19.7952,VALID,24,VALID,0,
2008-07-14, 00:59:00,VALID,917.669,VALID,0,VALID,100,VALID,-0.0849042,VALID,19.7981,VALID,24,VALID,0,
2008-07-14, 01:00:00,VALID,917.663,VALID,0,VALID,100,VALID,-0.0509425,VALID,19.7887,VALID,24,VALID,0,
2008-07-14, 01:01:00,VALID,917.64,VALID,0,VALID,100,VALID,-0.0849042,VALID,19.7754,VALID,24,VALID,0,
2008-07-14, 01:02:00,VALID,917.635,VALID,0,VALID,100,VALID,-0.0509425,VALID,19.7792,VALID,24,VALID,0,
2008-07-14, 01:03:00,VALID,917.627,VALID,0,VALID,100,VALID,-0.0849042,VALID,19.7625,VALID,24,VALID,0,
2008-07-14, 01:04:00,VALID,917.603,VALID,0,VALID,100,VALID,-0.0509425,VALID,19.7722,VALID,24,VALID,0,
2008-07-14, 01:05:00,VALID,917.58,VALID,0,VALID,100,VALID,-0.0849042,VALID,19.7852,VALID,24,VALID,0,
2008-07-14, 01:06:00,VALID,917.576,VALID,0,VALID,100,VALID,-0.118866,VALID,19.7919,VALID,24,VALID,0,
2008-07-14, 01:07:00,VALID,917.547,VALID,0,VALID,100,VALID,-0.0849042,VALID,19.8111,VALID,24,VALID,0,
2008-07-14, 01:08:00,VALID,917.525,VALID,0,VALID,100,VALID,-0.0679233,VALID,19.8144,VALID,24,VALID,0,
2008-07-14, 01:09:00,VALID,917.494,VALID,0,VALID,100,VALID,-0.0509425,VALID,19.8306,VALID,24,VALID,0,
2008-07-14, 01:10:00,VALID,917.488,VALID,0,VALID,100,VALID,-0.0679233,VALID,19.8209,VALID,24,VALID,0,
2008-07-14, 01:11:00,VALID,917.463,VALID,0,VALID,100,VALID,-0.0849042,VALID,19.8443,VALID,24,VALID,0,
2008-07-14, 01:12:00,VALID,917.451,VALID,0,VALID,100,VALID,-0.0849042,VALID,19.867,VALID,24,VALID,0,
2008-07-14, 01:13:00,VALID,917.425,VALID,0,VALID,100,VALID,-0.0849042,VALID,19.883,VALID,24,VALID,0,
2008-07-14, 01:14:00,VALID,917.4,VALID,0,VALID,100,VALID,-0.118866,VALID,19.903,VALID,24,VALID,0,
2008-07-14, 01:15:00,VALID,917.358,VALID,0,VALID,100,VALID,-0.118866,VALID,19.8987,VALID,24,VALID,0,
2008-07-14, 01:16:00,VALID,917.323,VALID,0,VALID,100,VALID,-0.0849042,VALID,19.8695,VALID,24,VALID,0,
2008-07-14, 01:17:00,VALID,917.283,VALID,0,VALID,100,VALID,-0.101885,VALID,19.8538,VALID,24,VALID,0,
2008-07-14, 01:18:00,VALID,917.243,VALID,0,VALID,100,VALID,-0.118866,VALID,19.87,VALID,24,VALID,0,
2008-07-14, 01:19:00,VALID,917.202,VALID,0,VALID,100,VALID,-0.0849042,VALID,19.8795,VALID,24,VALID,0.0414807,
2008-07-14, 01:20:00,VALID,917.175,VALID,0,VALID,100,VALID,-0.118866,VALID,19.8895,VALID,24,VALID,0.0253906,
2008-07-14, 01:21:00,VALID,917.148,VALID,0,VALID,100,VALID,-0.0509425,VALID,19.9157,VALID,27,VALID,0.0965402,
2008-07-14, 01:22:00,VALID,917.128,VALID,0,VALID,100,VALID,-0.152827,VALID,19.9344,VALID,28,VALID,0.496094,
2008-07-14, 01:23:00,VALID,917.119,VALID,0,VALID,100,VALID,-0.0849042,VALID,19.9479,VALID,34,VALID,0.713778,
2008-07-14, 01:24:00,VALID,917.103,VALID,0,VALID,100,VALID,-0.101885,VALID,19.9571,VALID,34,VALID,0.503906,
2008-07-14, 01:25:00,VALID,917.105,VALID,0,VALID,100,VALID,-0.101885,VALID,19.9844,VALID,30,VALID,0.10773,
2008-07-14, 01:26:00,VALID,917.102,VALID,0,VALID,100,VALID,-0.101885,VALID,19.9869,VALID,30,VALID,0.0344122,
2008-07-14, 01:27:00,VALID,917.101,VALID,0,VALID,100,VALID,-0.118866,VALID,19.9709,VALID,30,VALID,0,
2008-07-14, 01:28:00,VALID,917.088,VALID,0,VALID,100,VALID,-0.101885,VALID,19.9709,VALID,30,VALID,0,
2008-07-14, 01:29:00,VALID,917.077,VALID,0,VALID,100,VALID,-0.101885,VALID,19.9806,VALID,30,VALID,0,
2008-07-14, 01:30:00,VALID,917.062,VALID,0,VALID,100,VALID,-0.101885,VALID,19.9804,VALID,30,VALID,0,
2008-07-14, 01:31:00,VALID,917.048,VALID,0,VALID,100,VALID,-0.101885,VALID,19.9549,VALID,30,VALID,0,
2008-07-14, 01:32:00,VALID,917.032,VALID,0,VALID,100,VALID,-0.101885,VALID,19.9382,VALID,30,VALID,0,
2008-07-14, 01:33:00,VALID,917.042,VALID,0,VALID,100,VALID,-0.0679233,VALID,19.9454,VALID,30,VALID,0,
2008-07-14, 01:34:00,VALID,917.032,VALID,0,VALID,100,VALID,-0.101885,VALID,19.9484,VALID,30,VALID,0,
2008-07-14, 01:35:00,VALID,917.045,VALID,0,VALID,100,VALID,-0.101885,VALID,19.9354,VALID,30,VALID,0,
2008-07-14, 01:36:00,VALID,917.044,VALID,0,VALID,100,VALID,-0.0679233,VALID,19.9347,VALID,30,VALID,0,
2008-07-14, 01:37:00,VALID,917.031,VALID,0,VALID,100,VALID,-0.0679233,VALID,19.9312,VALID,30,VALID,0,
2008-07-14, 01:38:00,VALID,917.035,VALID,0,VALID,100,VALID,-0.0849042,VALID,19.9312,VALID,30,VALID,0,
2008-07-14, 01:39:00,VALID,917.03,VALID,0,VALID,100,VALID,-0.101885,VALID,19.9382,VALID,30,VALID,0,
2008-07-14, 01:40:00,VALID,917.01,VALID,0,VALID,100,VALID,-0.0849042,VALID,19.9542,VALID,30,VALID,0,
2008-07-14, 01:41:00,VALID,916.995,VALID,0,VALID,100,VALID,-0.186789,VALID,19.9552,VALID,29,VALID,0,
2008-07-14, 01:42:00,VALID,916.982,VALID,0,VALID,100,VALID,-0.220751,VALID,19.9629,VALID,29,VALID,0,
2008-07-14, 01:43:00,VALID,916.95,VALID,0,VALID,100,VALID,-0.186789,VALID,19.9424,VALID,29,VALID,0,
2008-07-14, 01:44:00,VALID,916.919,VALID,0,VALID,100,VALID,-0.186789,VALID,19.9429,VALID,31,VALID,0,
2008-07-14, 01:45:00,VALID,916.909,VALID,0,VALID,100,VALID,-0.186789,VALID,19.9494,VALID,32,VALID,0,
2008-07-14, 01:46:00,VALID,916.884,VALID,0,VALID,100,VALID,-0.20377,VALID,19.9557,VALID,32,VALID,0,
2008-07-14, 01:47:00,VALID,916.888,VALID,0,VALID,100,VALID,-0.20377,VALID,19.9622,VALID,34,VALID,0,
2008-07-14, 01:48:00,VALID,916.882,VALID,0,VALID,100,VALID,-0.186789,VALID,19.9659,VALID,32,VALID,0,
2008-07-14, 01:49:00,VALID,916.89,VALID,0,VALID,100,VALID,-0.186789,VALID,19.9557,VALID,38,VALID,0.124306,
2008-07-14, 01:50:00,VALID,916.894,VALID,0,VALID,100,VALID,-0.186789,VALID,19.9894,VALID,35,VALID,1.03087,
2008-07-14, 01:51:00,VALID,916.925,VALID,0,VALID,100,VALID,-0.20377,VALID,19.9989,VALID,38,VALID,1.27787,
2008-07-14, 01:52:00,VALID,916.956,VALID,0,VALID,100,VALID,-0.20377,VALID,19.9891,VALID,26,VALID,1.0084,
2008-07-14, 01:53:00,VALID,916.976,VALID,0,VALID,100,VALID,-0.220751,VALID,19.9692,VALID,36,VALID,0.698219,
2008-07-14, 01:54:00,VALID,916.983,VALID,0,VALID,100,VALID,-0.20377,VALID,19.9502,VALID,28,VALID,1.15179,
2008-07-14, 01:55:00,VALID,916.979,VALID,0,VALID,100,VALID,-0.20377,VALID,19.9042,VALID,14,VALID,1.34282,
2008-07-14, 01:56:00,VALID,916.993,VALID,0,VALID,100,VALID,-0.118866,VALID,19.8873,VALID,20,VALID,0.925781,
2008-07-14, 01:57:00,VALID,916.985,VALID,0,VALID,100,VALID,-0.101885,VALID,19.8635,VALID,31,VALID,0.850586,
2008-07-14, 01:58:00,VALID,916.992,VALID,0,VALID,100,VALID,-0.118866,VALID,19.8805,VALID,19,VALID,0.422408,
2008-07-14, 01:59:00,VALID,916.976,VALID,0,VALID,100,VALID,-0.0849042,VALID,19.8873,VALID,6,VALID,0.125381,
2008-07-14, 02:00:00,VALID,916.972,VALID,0,VALID,100,VALID,-0.118866,VALID,19.8765,VALID,11,VALID,0.0572311,
2008-07-14, 02:01:00,VALID,916.964,VALID,0,VALID,100,VALID,-0.0849042,VALID,19.8733,VALID,14,VALID,0,
2008-07-14, 02:02:00,VALID,916.951,VALID,0,VALID,100,VALID,-0.0849042,VALID,19.8738,VALID,14,VALID,0,
2008-07-14, 02:03:00,VALID,916.947,VALID,0,VALID,100,VALID,-0.101885,VALID,19.8633,VALID,12,VALID,0,
2008-07-14, 02:04:00,VALID,916.922,VALID,0,VALID,100,VALID,-0.0849042,VALID,19.8633,VALID,7,VALID,0,
2008-07-14, 02:05:00,VALID,916.903,VALID,0,VALID,100,VALID,-0.0849042,VALID,19.8536,VALID,9,VALID,0,
2008-07-14, 02:06:00,VALID,916.887,VALID,0,VALID,100,VALID,-0.101885,VALID,19.8733,VALID,7,VALID,0,
2008-07-14, 02:07:00,VALID,916.89,VALID,0,VALID,100,VALID,-0.101885,VALID,19.8763,VALID,7,VALID,0,
2008-07-14, 02:08:00,VALID,916.888,VALID,0,VALID,100,VALID,-0.118866,VALID,19.893,VALID,7,VALID,0,
2008-07-14, 02:09:00,VALID,916.877,VALID,0,VALID,100,VALID,-0.0849042,VALID,19.906,VALID,9,VALID,0,
2008-07-14, 02:10:00,VALID,916.843,VALID,0,VALID,100,VALID,-0.101885,VALID,19.909,VALID,23,VALID,0,
2008-07-14, 02:11:00,VALID,916.806,VALID,0,VALID,100,VALID,-0.101885,VALID,19.9215,VALID,23,VALID,0,
2008-07-14, 02:12:00,VALID,916.795,VALID,0,VALID,100,VALID,-0.0849042,VALID,19.9217,VALID,23,VALID,0,
2008-07-14, 02:13:00,VALID,916.764,VALID,0,VALID,100,VALID,-0.0509425,VALID,19.9182,VALID,23,VALID,0,
2008-07-14, 02:14:00,VALID,916.746,VALID,0,VALID,100,VALID,-0.101885,VALID,19.896,VALID,23,VALID,0.366602,
2008-07-14, 02:15:00,VALID,916.721,VALID,0,VALID,100,VALID,-0.101885,VALID,19.876,VALID,32,VALID,0.742535,
2008-07-14, 02:16:00,VALID,916.692,VALID,0,VALID,100,VALID,-0.101885,VALID,19.8665,VALID,26,VALID,0.712054,
2008-07-14, 02:17:00,VALID,916.676,VALID,0,VALID,100,VALID,-0.101885,VALID,19.8828,VALID,28,VALID,0.736281,
2008-07-14, 02:18:00,VALID,916.657,VALID,0,VALID,100,VALID,-0.101885,VALID,19.899,VALID,29,VALID,0.352734,
2008-07-14, 02:19:00,VALID,916.627,VALID,0,VALID,100,VALID,-0.0679233,VALID,19.9185,VALID,28,VALID,0,
2008-07-14, 02:20:00,VALID,916.605,VALID,0,VALID,100,VALID,-0.101885,VALID,19.9444,VALID,37,VALID,0,
2008-07-14, 02:21:00,VALID,916.581,VALID,0,VALID,100,VALID,-0.0679233,VALID,19.9342,VALID,32,VALID,0,
2008-07-14, 02:22:00,VALID,916.578,VALID,0,VALID,100,VALID,-0.0679233,VALID,19.9372,VALID,32,VALID,0,
2008-07-14, 02:23:00,VALID,916.566,VALID,0,VALID,100,VALID,-0.0339617,VALID,19.9407,VALID,33,VALID,0,
2008-07-14, 02:24:00,VALID,916.58,VALID,0,VALID,100,VALID,-0.0679233,VALID,19.9344,VALID,30,VALID,0,
2008-07-14, 02:25:00,VALID,916.573,VALID,0,VALID,100,VALID,-0.0679233,VALID,19.9017,VALID,28,VALID,0,
2008-07-14, 02:26:00,VALID,916.584,VALID,0,VALID,100,VALID,-0.0339617,VALID,19.8728,VALID,26,VALID,0,
2008-07-14, 02:27:00,VALID,916.583,VALID,0,VALID,100,VALID,-0.0339617,VALID,19.863,VALID,35,VALID,0,
2008-07-14, 02:28:00,VALID,916.584,VALID,0,VALID,100,VALID,-0.0849042,VALID,19.8638,VALID,37,VALID,0,
2008-07-14, 02:29:00,VALID,916.585,VALID,0,VALID,100,VALID,-0.101885,VALID,19.8438,VALID,23,VALID,0,
2008-07-14, 02:30:00,VALID,916.582,VALID,0,VALID,100,VALID,-0.101885,VALID,19.8174,VALID,12,VALID,0,
2008-07-14, 02:31:00,VALID,916.596,VALID,0,VALID,100,VALID,-0.0679233,VALID,19.7949,VALID,14,VALID,0.0880208,
2008-07-14, 02:32:00,VALID,916.595,VALID,0,VALID,100,VALID,-0.0679233,VALID,19.7592,VALID,20,VALID,1.38335,
2008-07-14, 02:33:00,VALID,916.605,VALID,0,VALID,100,VALID,-0.0679233,VALID,19.7495,VALID,22,VALID,1.33164,
2008-07-14, 02:34:00,VALID,916.64,VALID,0,VALID,100,VALID,-0.0679233,VALID,19.7527,VALID,23,VALID,1.12445,
2008-07-14, 02:35:00,VALID,916.652,VALID,0,VALID,100,VALID,-0.101885,VALID,19.7692,VALID,11,VALID,0.0859375,
2008-07-14, 02:36:00,VALID,916.674,VALID,0,VALID,100,VALID,-0.101885,VALID,19.747,VALID,353,VALID,0.102706,
2008-07-14, 02:37:00,VALID,916.684,VALID,0,VALID,100,VALID,-0.0679233,VALID,19.714,VALID,20,VALID,0,
2008-07-14, 02:38:00,VALID,916.677,VALID,0,VALID,100,VALID,-0.0849042,VALID,19.7337,VALID,19,VALID,0,
2008-07-14, 02:39:00,VALID,916.676,VALID,0,VALID,100,VALID,-0.101885,VALID,19.7303,VALID,16,VALID,0,
2008-07-14, 02:40:00,VALID,916.658,VALID,0,VALID,100,VALID,-0.118866,VALID,19.7113,VALID,14,VALID,0,
2008-07-14, 02:41:00,VALID,916.637,VALID,0,VALID,100,VALID,-0.135847,VALID,19.705,VALID,7,VALID,0,
2008-07-14, 02:42:00,VALID,916.598,VALID,0,VALID,100,VALID,-0.118866,VALID,19.6951,VALID,30,VALID,0.795632,
2008-07-14, 02:43:00,VALID,916.556,VALID,0,VALID,100,VALID,-0.0679233,VALID,19.6948,VALID,32,VALID,1.34617,
2008-07-14, 02:44:00,VALID,916.521,VALID,0,VALID,100,VALID,-0.0849042,VALID,19.7275,VALID,26,VALID,0.474201,
2008-07-14, 02:45:00,VALID,916.478,VALID,0,VALID,100,VALID,-0.0679233,VALID,19.7208,VALID,26,VALID,0,
2008-07-14, 02:46:00,VALID,916.451,VALID,0,VALID,100,VALID,-0.0679233,VALID,19.7143,VALID,26,VALID,0,
2008-07-14, 02:47:00,VALID,916.419,VALID,0,VALID,100,VALID,-0.101885,VALID,19.6976,VALID,331,VALID,0.36319,
2008-07-14, 02:48:00,VALID,916.391,VALID,0,VALID,100,VALID,-0.118866,VALID,19.6621,VALID,327,VALID,0.00364583,
2008-07-14, 02:49:00,VALID,916.397,VALID,0,VALID,100,VALID,-0.0849042,VALID,19.6556,VALID,330,VALID,0,
2008-07-14, 02:50:00,VALID,916.39,VALID,0,VALID,100,VALID,-0.0849042,VALID,19.6684,VALID,330,VALID,0,
2008-07-14, 02:51:00,VALID,916.392,VALID,0,VALID,100,VALID,-0.101885,VALID,19.6781,VALID,332,VALID,0.140439,
2008-07-14, 02:52:00,VALID,916.407,VALID,0,VALID,100,VALID,-0.118866,VALID,19.6878,VALID,351,VALID,0,
2008-07-14, 02:53:00,VALID,916.417,VALID,0,VALID,100,VALID,-0.0849042,VALID,19.737,VALID,16,VALID,0,
2008-07-14, 02:54:00,VALID,916.4,VALID,0,VALID,100,VALID,-0.118866,VALID,19.7497,VALID,21,VALID,0,
2008-07-14, 02:55:00,VALID,916.394,VALID,0,VALID,100,VALID,-0.101885,VALID,19.7689,VALID,23,VALID,0,
2008-07-14, 02:56:00,VALID,916.389,VALID,0,VALID,100,VALID,-0.101885,VALID,19.7986,VALID,25,VALID,0.271151,
2008-07-14, 02:57:00,VALID,916.366,VALID,0,VALID,100,VALID,-0.101885,VALID,19.7854,VALID,26,VALID,0.115091,
2008-07-14, 02:58:00,VALID,916.341,VALID,0,VALID,100,VALID,-0.0849042,VALID,19.7754,VALID,26,VALID,0,
2008-07-14, 02:59:00,VALID,916.305,VALID,0,VALID,100,VALID,-0.101885,VALID,19.7659,VALID,26,VALID,0,
2008-07-14, 03:00:00,VALID,916.237,VALID,0,VALID,100,VALID,-0.101885,VALID,19.7694,VALID,27,VALID,0.0455729,
2008-07-14, 03:01:00,VALID,916.156,VALID,0,VALID,100,VALID,-0.0849042,VALID,19.753,VALID,28,VALID,0.142113,
2008-07-14, 03:02:00,VALID,916.114,VALID,0,VALID,100,VALID,-0.0509425,VALID,19.7659,VALID,32,VALID,0.00133384,
2008-07-14, 03:03:00,VALID,916.076,VALID,0,VALID,100,VALID,-0.0849042,VALID,19.7787,VALID,35,VALID,0.0759448,
2008-07-14, 03:04:00,VALID,916.075,VALID,0,VALID,100,VALID,-0.0339617,VALID,19.7787,VALID,37,VALID,0.808503,
2008-07-14, 03:05:00,VALID,916.113,VALID,0,VALID,100,VALID,-0.0849042,VALID,19.7754,VALID,31,VALID,1.27202,
2008-07-14, 03:06:00,VALID,916.18,VALID,0,VALID,100,VALID,-0.101885,VALID,19.7108,VALID,21,VALID,1.49858,
2008-07-14, 03:07:00,VALID,916.254,VALID,0,VALID,100,VALID,-0.101885,VALID,19.6851,VALID,43,VALID,1.16722,
2008-07-14, 03:08:00,VALID,916.315,VALID,0,VALID,100,VALID,-0.0339617,VALID,19.6913,VALID,36,VALID,0.353237,
2008-07-14, 03:09:00,VALID,916.341,VALID,0,VALID,100,VALID,-0.0339617,VALID,19.6876,VALID,24,VALID,0,
2008-07-14, 03:10:00,VALID,916.346,VALID,0,VALID,100,VALID,-0.0679233,VALID,19.701,VALID,42,VALID,0,
2008-07-14, 03:11:00,VALID,916.305,VALID,0,VALID,100,VALID,-0.118866,VALID,19.6858,VALID,32,VALID,0,
2008-07-14, 03:12:00,VALID,916.283,VALID,0,VALID,100,VALID,-0.135847,VALID,19.6666,VALID,30,VALID,0,
2008-07-14, 03:13:00,VALID,916.26,VALID,0,VALID,100,VALID,-0.169808,VALID,19.6341,VALID,30,VALID,0,
2008-07-14, 03:14:00,VALID,916.258,VALID,0,VALID,100,VALID,-0.152827,VALID,19.6212,VALID,30,VALID,0,
2008-07-14, 03:15:00,VALID,916.262,VALID,0,VALID,100,VALID,-0.152827,VALID,19.582,VALID,46,VALID,0,
2008-07-14, 03:16:00,VALID,916.27,VALID,0,VALID,100,VALID,-0.152827,VALID,19.5725,VALID,40,VALID,0,
2008-07-14, 03:17:00,VALID,916.299,VALID,0,VALID,100,VALID,-0.186789,VALID,19.5757,VALID,43,VALID,0,
2008-07-14, 03:18:00,VALID,916.305,VALID,0,VALID,100,VALID,-0.20377,VALID,19.6052,VALID,38,VALID,0,
2008-07-14, 03:19:00,VALID,916.312,VALID,0,VALID,100,VALID,-0.20377,VALID,19.6309,VALID,42,VALID,0,
2008-07-14, 03:20:00,VALID,916.354,VALID,0,VALID,100,VALID,-0.186789,VALID,19.6244,VALID,24,VALID,0.0979288,
2008-07-14, 03:21:00,VALID,916.378,VALID,0,VALID,100,VALID,-0.20377,VALID,19.5885,VALID,24,VALID,0.12407,
2008-07-14, 03:22:00,VALID,916.429,VALID,0,VALID,100,VALID,-0.152827,VALID,19.5692,VALID,12,VALID,0.0763081,
2008-07-14, 03:23:00,VALID,916.443,VALID,0,VALID,100,VALID,-0.152827,VALID,19.5625,VALID,20,VALID,0,
2008-07-14, 03:24:00,VALID,916.464,VALID,0,VALID,100,VALID,-0.169808,VALID,19.5725,VALID,21,VALID,0,
2008-07-14, 03:25:00,VALID,916.462,VALID,0,VALID,100,VALID,-0.152827,VALID,19.5757,VALID,15,VALID,0,
2008-07-14, 03:26:00,VALID,916.457,VALID,0,VALID,100,VALID,-0.0849042,VALID,19.5448,VALID,22,VALID,0,
2008-07-14, 03:27:00,VALID,916.459,VALID,0,VALID,100,VALID,-0.0849042,VALID,19.5488,VALID,25,VALID,0,
2008-07-14, 03:28:00,VALID,916.458,VALID,0,VALID,100,VALID,-0.0509425,VALID,19.5386,VALID,24,VALID,0.225472,
2008-07-14, 03:29:00,VALID,916.48,VALID,0,VALID,100,VALID,-0.0849042,VALID,19.5094,VALID,26,VALID,0.646007,
2008-07-14, 03:30:00,VALID,916.499,VALID,0,VALID,100,VALID,-0.0849042,VALID,19.5029,VALID,43,VALID,0.682813,
2008-07-14, 03:31:00,VALID,916.533,VALID,0,VALID,100,VALID,-0.0849042,VALID,19.5161,VALID,39,VALID,0.0129616,
2008-07-14, 03:32:00,VALID,916.553,VALID,0,VALID,100,VALID,-0.0339617,VALID,19.5124,VALID,24,VALID,0.33457,
2008-07-14, 03:33:00,VALID,916.544,VALID,0,VALID,100,VALID,-0.0339617,VALID,19.5094,VALID,16,VALID,0,
2008-07-14, 03:34:00,VALID,916.535,VALID,0,VALID,100,VALID,-0.0679233,VALID,19.5226,VALID,26,VALID,0.252418,
2008-07-14, 03:35:00,VALID,916.534,VALID,0,VALID,100,VALID,-0.0679233,VALID,19.5386,VALID,27,VALID,0.0497332,
2008-07-14, 03:36:00,VALID,916.517,VALID,0,VALID,100,VALID,-0.0339617,VALID,19.5421,VALID,27,VALID,0.00228659,
2008-07-14, 03:37:00,VALID,916.526,VALID,0,VALID,100,VALID,-0.101885,VALID,19.5318,VALID,27,VALID,0.0321801,
2008-07-14, 03:38:00,VALID,916.552,VALID,0,VALID,100,VALID,-0.101885,VALID,19.5094,VALID,30,VALID,0.0381324,
2008-07-14, 03:39:00,VALID,916.588,VALID,0,VALID,100,VALID,-0.118866,VALID,19.4966,VALID,50,VALID,0,
2008-07-14, 03:40:00,VALID,916.619,VALID,0,VALID,100,VALID,-0.101885,VALID,19.4841,VALID,49,VALID,0,
2008-07-14, 03:41:00,VALID,916.631,VALID,0,VALID,100,VALID,-0.101885,VALID,19.4834,VALID,48,VALID,0,
2008-07-14, 03:42:00,VALID,916.615,VALID,0,VALID,100,VALID,-0.0849042,VALID,19.4834,VALID,48,VALID,0,
2008-07-14, 03:43:00,VALID,916.588,VALID,0,VALID,100,VALID,-0.0679233,VALID,19.4996,VALID,48,VALID,0,
2008-07-14, 03:44:00,VALID,916.555,VALID,0,VALID,100,VALID,-0.0679233,VALID,19.5156,VALID,48,VALID,0,
2008-07-14, 03:45:00,VALID,916.518,VALID,0,VALID,100,VALID,-0.101885,VALID,19.5094,VALID,48,VALID,0,
2008-07-14, 03:46:00,VALID,916.485,VALID,0,VALID,100,VALID,-0.0339617,VALID,19.5156,VALID,48,VALID,0,
2008-07-14, 03:47:00,VALID,916.475,VALID,0,VALID,100,VALID,-0.0849042,VALID,19.5158,VALID,42,VALID,0,